Time,TemperatureF,DewpointF,PressureIn,WindDirection,WindDirectionDegrees,WindSpeedMPH,WindSpeedGustMPH,Humidity,HourlyPrecipIn,Conditions,Clouds,dailyrainin,SoftwareType,DateUTC
2013-02-25 00:07:00,29.5,24.0,30.03,NE,40,0.0,0.0,79,0.00,,,0.00,weatherlink.com 1.10,2013-02-25 05:07:00,
2013-02-25 00:22:00,28.9,24.0,30.03,NW,311,0.0,1.0,82,0.00,,,0.00,weatherlink.com 1.10,2013-02-25 05:22:00,
2013-02-25 00:37:00,28.1,24.0,30.04,North,360,0.0,1.0,84,0.00,,,0.00,weatherlink.com 1.10,2013-02-25 05:37:00,
2013-02-25 00:52:00,27.8,24.0,30.04,NE,46,0.0,1.0,84,0.00,,,0.00,weatherlink.com 1.10,2013-02-25 05:52:00,
2013-02-25 01:07:00,27.3,23.0,30.05,NE,46,0.0,1.0,85,0.00,,,0.00,weatherlink.com 1.10,2013-02-25 06:07:00,
2013-02-25 01:22:00,27.0,23.0,30.05,NE,46,0.0,1.0,85,0.00,,,0.00,weatherlink.com 1.10,2013-02-25 06:22:00,
2013-02-25 01:37:00,26.7,23.0,30.05,NE,46,0.0,1.0,86,0.00,,,0.00,weatherlink.com 1.10,2013-02-25 06:37:00,
2013-02-25 01:52:00,26.5,23.0,30.06,NE,46,0.0,0.0,87,0.00,,,0.00,weatherlink.com 1.10,2013-02-25 06:52:00,
2013-02-25 02:07:00,26.2,23.0,30.06,NE,46,0.0,1.0,88,0.00,,,0.00,weatherlink.com 1.10,2013-02-25 07:07:00,
2013-02-25 02:22:00,26.0,23.0,30.06,NE,46,0.0,1.0,88,0.00,,,0.00,weatherlink.com 1.10,2013-02-25 07:22:00,
2013-02-25 02:37:00,25.9,23.0,30.06,NNW,334,0.0,1.0,88,0.00,,,0.00,weatherlink.com 1.10,2013-02-25 07:37:00,
2013-02-25 02:52:00,25.9,23.0,30.06,NNW,335,0.0,0.0,88,0.00,,,0.00,weatherlink.com 1.10,2013-02-25 07:52:00,
2013-02-25 03:07:00,25.9,23.0,30.07,NNW,343,0.0,0.0,89,0.00,,,0.00,weatherlink.com 1.10,2013-02-25 08:07:00,
2013-02-25 03:22:00,25.5,23.0,30.07,NNW,343,0.0,1.0,89,0.00,,,0.00,weatherlink.com 1.10,2013-02-25 08:22:00,
2013-02-25 03:37:00,25.4,23.0,30.07,North,353,0.0,1.0,90,0.00,,,0.00,weatherlink.com 1.10,2013-02-25 08:37:00,
2013-02-25 03:52:00,25.3,23.0,30.07,North,353,0.0,0.0,90,0.00,,,0.00,weatherlink.com 1.10,2013-02-25 08:52:00,
2013-02-25 04:07:00,25.1,23.0,30.07,NNE,20,0.0,0.0,90,0.00,,,0.00,weatherlink.com 1.10,2013-02-25 09:07:00,
2013-02-25 04:22:00,25.1,23.0,30.08,NNE,20,0.0,0.0,91,0.00,,,0.00,weatherlink.com 1.10,2013-02-25 09:22:00,
2013-02-25 04:37:00,24.9,23.0,30.09,NNE,20,0.0,0.0,91,0.00,,,0.00,weatherlink.com 1.10,2013-02-25 09:37:00,
2013-02-25 04:52:00,24.8,23.0,30.10,NNE,20,0.0,0.0,91,0.00,,,0.00,weatherlink.com 1.10,2013-02-25 09:52:00,
2013-02-25 05:07:00,24.8,23.0,30.10,NNE,20,0.0,1.0,92,0.00,,,0.00,weatherlink.com 1.10,2013-02-25 10:07:00,
2013-02-25 05:22:00,24.6,23.0,30.10,NNE,20,0.0,0.0,92,0.00,,,0.00,weatherlink.com 1.10,2013-02-25 10:22:00,
2013-02-25 05:37:00,24.4,22.0,30.11,NNE,20,0.0,1.0,92,0.00,,,0.00,weatherlink.com 1.10,2013-02-25 10:37:00,
2013-02-25 05:52:00,24.3,22.0,30.11,NNE,20,0.0,1.0,92,0.00,,,0.00,weatherlink.com 1.10,2013-02-25 10:52:00,
2013-02-25 06:07:00,24.0,22.0,30.12,NNE,20,0.0,0.0,93,0.00,,,0.00,weatherlink.com 1.10,2013-02-25 11:07:00,
2013-02-25 06:22:00,23.9,22.0,30.12,NNE,20,0.0,1.0,93,0.00,,,0.00,weatherlink.com 1.10,2013-02-25 11:22:00,
2013-02-25 06:37:00,24.0,23.0,30.13,NNE,20,0.0,1.0,94,0.00,,,0.00,weatherlink.com 1.10,2013-02-25 11:37:00,
2013-02-25 06:52:00,23.9,23.0,30.13,NNE,20,0.0,0.0,94,0.00,,,0.00,weatherlink.com 1.10,2013-02-25 11:52:00,
2013-02-25 07:07:00,24.4,23.0,30.14,NNE,20,0.0,0.0,94,0.00,,,0.00,weatherlink.com 1.10,2013-02-25 12:07:00,
2013-02-25 07:23:00,25.3,24.0,30.14,NNE,20,0.0,0.0,94,0.00,,,0.00,weatherlink.com 1.10,2013-02-25 12:23:00,
2013-02-25 07:38:00,26.2,25.0,30.16,NNE,20,0.0,0.0,94,0.00,,,0.00,weatherlink.com 1.10,2013-02-25 12:38:00,
2013-02-25 07:53:00,27.3,25.0,30.16,NNE,20,0.0,1.0,92,0.00,,,0.00,weatherlink.com 1.10,2013-02-25 12:53:00,
2013-02-25 08:08:00,28.3,26.0,30.16,NNE,20,0.0,0.0,91,0.00,,,0.00,weatherlink.com 1.10,2013-02-25 13:08:00,
2013-02-25 08:23:00,29.5,27.0,30.17,NNE,20,0.0,0.0,91,0.00,,,0.00,weatherlink.com 1.10,2013-02-25 13:23:00,
2013-02-25 08:38:00,30.8,28.0,30.17,NNE,20,0.0,0.0,89,0.00,,,0.00,weatherlink.com 1.10,2013-02-25 13:38:00,
2013-02-25 09:08:00,32.3,27.0,30.17,NNE,20,0.0,1.0,82,0.00,,,0.00,weatherlink.com 1.10,2013-02-25 14:08:00,
2013-02-25 09:23:00,32.2,27.0,30.19,ESE,121,0.0,1.0,82,0.00,,,0.00,weatherlink.com 1.10,2013-02-25 14:23:00,
2013-02-25 09:38:00,32.5,28.0,30.19,NW,310,0.0,0.0,82,0.00,,,0.00,weatherlink.com 1.10,2013-02-25 14:38:00,
2013-02-25 09:53:00,33.6,28.0,30.18,NW,311,0.0,0.0,81,0.00,,,0.00,weatherlink.com 1.10,2013-02-25 14:53:00,
2013-02-25 10:08:00,35.6,29.0,30.19,South,180,0.0,1.0,78,0.00,,,0.00,weatherlink.com 1.10,2013-02-25 15:08:00,
2013-02-25 10:23:00,36.0,29.0,30.19,SSE,158,0.0,1.0,77,0.00,,,0.00,weatherlink.com 1.10,2013-02-25 15:23:00,
2013-02-25 10:38:00,37.3,31.0,30.18,SE,140,0.0,1.0,77,0.00,,,0.00,weatherlink.com 1.10,2013-02-25 15:38:00,
2013-02-25 10:53:00,38.4,30.0,30.18,SSE,158,0.0,2.0,73,0.00,,,0.00,weatherlink.com 1.10,2013-02-25 15:53:00,
2013-02-25 11:08:00,39.8,31.0,30.18,SSE,158,0.0,2.0,70,0.00,,,0.00,weatherlink.com 1.10,2013-02-25 16:08:00,
2013-02-25 11:23:00,39.9,30.0,30.19,SSE,163,0.0,2.0,69,0.00,,,0.00,weatherlink.com 1.10,2013-02-25 16:23:00,
2013-02-25 11:38:00,41.5,32.0,30.19,WNW,297,0.0,1.0,68,0.00,,,0.00,weatherlink.com 1.10,2013-02-25 16:38:00,
2013-02-25 11:53:00,43.9,31.0,30.19,NW,322,1.0,3.0,62,0.00,,,0.00,weatherlink.com 1.10,2013-02-25 16:53:00,
2013-02-25 12:08:00,44.1,30.0,30.19,SSE,162,0.0,3.0,59,0.00,,,0.00,weatherlink.com 1.10,2013-02-25 17:08:00,
2013-02-25 12:23:00,43.8,30.0,30.19,SSE,153,0.0,1.0,59,0.00,,,0.00,weatherlink.com 1.10,2013-02-25 17:23:00,
2013-02-25 12:38:00,43.1,30.0,30.19,WNW,290,0.0,1.0,61,0.00,,,0.00,weatherlink.com 1.10,2013-02-25 17:38:00,
2013-02-25 12:54:00,42.6,30.0,30.20,West,260,0.0,1.0,62,0.00,,,0.00,weatherlink.com 1.10,2013-02-25 17:54:00,
2013-02-25 13:08:00,42.8,30.0,30.20,WSW,257,0.0,1.0,60,0.00,,,0.00,weatherlink.com 1.10,2013-02-25 18:08:00,
2013-02-25 13:23:00,43.5,30.0,30.20,NNW,339,0.0,2.0,59,0.00,,,0.00,weatherlink.com 1.10,2013-02-25 18:23:00,
2013-02-25 13:38:00,43.9,30.0,30.19,SW,218,0.0,1.0,58,0.00,,,0.00,weatherlink.com 1.10,2013-02-25 18:38:00,
2013-02-25 13:53:00,43.8,29.0,30.19,NW,314,0.0,1.0,56,0.00,,,0.00,weatherlink.com 1.10,2013-02-25 18:53:00,
2013-02-25 14:08:00,43.7,29.0,30.20,SSW,194,0.0,1.0,56,0.00,,,0.00,weatherlink.com 1.10,2013-02-25 19:08:00,
2013-02-25 14:24:00,44.1,28.0,30.20,SSW,197,0.0,1.0,54,0.00,,,0.00,weatherlink.com 1.10,2013-02-25 19:24:00,
2013-02-25 14:39:00,45.4,29.0,30.20,NNE,23,1.0,1.0,53,0.00,,,0.00,weatherlink.com 1.10,2013-02-25 19:39:00,
2013-02-25 14:54:00,44.5,29.0,30.19,ENE,65,0.0,1.0,54,0.00,,,0.00,weatherlink.com 1.10,2013-02-25 19:54:00,
2013-02-25 15:09:00,43.7,28.0,30.20,NE,56,0.0,1.0,55,0.00,,,0.00,weatherlink.com 1.10,2013-02-25 20:09:00,
2013-02-25 15:24:00,43.1,29.0,30.20,ENE,65,0.0,1.0,57,0.00,,,0.00,weatherlink.com 1.10,2013-02-25 20:24:00,
2013-02-25 15:39:00,42.7,28.0,30.20,SSW,207,0.0,1.0,57,0.00,,,0.00,weatherlink.com 1.10,2013-02-25 20:39:00,
2013-02-25 15:54:00,42.3,28.0,30.20,SW,215,0.0,0.0,58,0.00,,,0.00,weatherlink.com 1.10,2013-02-25 20:54:00,
2013-02-25 16:09:00,41.7,29.0,30.21,SW,215,0.0,0.0,61,0.00,,,0.00,weatherlink.com 1.10,2013-02-25 21:09:00,
2013-02-25 16:24:00,41.4,29.0,30.21,SW,226,0.0,0.0,61,0.00,,,0.00,weatherlink.com 1.10,2013-02-25 21:24:00,
2013-02-25 16:39:00,41.2,29.0,30.21,SW,226,0.0,0.0,62,0.00,,,0.00,weatherlink.com 1.10,2013-02-25 21:39:00,
2013-02-25 16:54:00,40.8,30.0,30.21,SW,226,0.0,0.0,65,0.00,,,0.00,weatherlink.com 1.10,2013-02-25 21:54:00,
2013-02-25 17:09:00,40.2,30.0,30.21,SW,226,0.0,0.0,68,0.00,,,0.00,weatherlink.com 1.10,2013-02-25 22:09:00,
2013-02-25 17:24:00,39.8,30.0,30.22,SW,226,0.0,0.0,69,0.00,,,0.00,weatherlink.com 1.10,2013-02-25 22:24:00,
2013-02-25 17:39:00,39.3,29.0,30.22,SW,226,0.0,0.0,66,0.00,,,0.00,weatherlink.com 1.10,2013-02-25 22:39:00,
2013-02-25 17:54:00,39.1,30.0,30.24,SW,226,0.0,0.0,69,0.00,,,0.00,weatherlink.com 1.10,2013-02-25 22:54:00,
2013-02-25 18:09:00,38.2,30.0,30.25,SW,226,0.0,0.0,73,0.00,,,0.00,weatherlink.com 1.10,2013-02-25 23:09:00,
2013-02-25 18:24:00,37.8,30.0,30.26,SW,226,0.0,0.0,72,0.00,,,0.00,weatherlink.com 1.10,2013-02-25 23:24:00,
2013-02-25 18:39:00,37.5,30.0,30.26,SW,226,0.0,0.0,74,0.00,,,0.00,weatherlink.com 1.10,2013-02-25 23:39:00,
2013-02-25 18:54:00,36.7,30.0,30.26,SW,226,0.0,0.0,76,0.00,,,0.00,weatherlink.com 1.10,2013-02-25 23:54:00,
2013-02-25 19:09:00,36.5,30.0,30.26,SW,226,0.0,0.0,77,0.00,,,0.00,weatherlink.com 1.10,2013-02-26 00:09:00,
2013-02-25 19:24:00,36.0,30.0,30.26,SW,226,0.0,0.0,79,0.00,,,0.00,weatherlink.com 1.10,2013-02-26 00:24:00,
2013-02-25 19:39:00,35.8,30.0,30.26,SW,226,0.0,0.0,80,0.00,,,0.00,weatherlink.com 1.10,2013-02-26 00:39:00,
2013-02-25 19:54:00,35.6,30.0,30.26,SW,226,0.0,0.0,81,0.00,,,0.00,weatherlink.com 1.10,2013-02-26 00:54:00,
2013-02-25 20:09:00,35.1,30.0,30.27,SW,226,0.0,0.0,81,0.00,,,0.00,weatherlink.com 1.10,2013-02-26 01:09:00,
2013-02-25 20:24:00,34.9,30.0,30.27,SW,226,0.0,0.0,81,0.00,,,0.00,weatherlink.com 1.10,2013-02-26 01:24:00,
2013-02-25 20:39:00,34.6,30.0,30.27,SW,226,0.0,0.0,82,0.00,,,0.00,weatherlink.com 1.10,2013-02-26 01:39:00,
2013-02-25 20:54:00,34.1,30.0,30.27,SW,226,0.0,0.0,83,0.00,,,0.00,weatherlink.com 1.10,2013-02-26 01:54:00,
2013-02-25 21:09:00,33.7,29.0,30.27,SW,226,0.0,1.0,83,0.00,,,0.00,weatherlink.com 1.10,2013-02-26 02:09:00,
2013-02-25 21:24:00,33.8,29.0,30.27,SW,226,0.0,0.0,82,0.00,,,0.00,weatherlink.com 1.10,2013-02-26 02:24:00,
2013-02-25 21:39:00,33.6,29.0,30.28,SW,226,0.0,1.0,83,0.00,,,0.00,weatherlink.com 1.10,2013-02-26 02:39:00,
2013-02-25 21:54:00,33.4,29.0,30.29,SW,226,0.0,1.0,84,0.00,,,0.00,weatherlink.com 1.10,2013-02-26 02:54:00,
2013-02-25 22:09:00,33.2,29.0,30.29,SW,226,0.0,0.0,84,0.00,,,0.00,weatherlink.com 1.10,2013-02-26 03:09:00,
2013-02-25 22:24:00,33.3,29.0,30.29,SW,226,0.0,1.0,84,0.00,,,0.00,weatherlink.com 1.10,2013-02-26 03:24:00,
2013-02-25 22:39:00,33.4,29.0,30.30,SW,226,0.0,0.0,84,0.00,,,0.00,weatherlink.com 1.10,2013-02-26 03:39:00,
2013-02-25 22:54:00,33.4,29.0,30.30,SW,226,0.0,0.0,84,0.00,,,0.00,weatherlink.com 1.10,2013-02-26 03:54:00,
2013-02-25 23:09:00,33.4,29.0,30.30,SW,226,0.0,0.0,84,0.00,,,0.00,weatherlink.com 1.10,2013-02-26 04:09:00,
2013-02-25 23:24:00,33.5,29.0,30.30,SW,226,0.0,0.0,84,0.00,,,0.00,weatherlink.com 1.10,2013-02-26 04:24:00,
2013-02-25 23:39:00,33.5,30.0,30.29,SW,225,0.0,0.0,85,0.00,,,0.00,weatherlink.com 1.10,2013-02-26 04:39:00,
2013-02-25 23:54:00,33.2,29.0,30.29,SW,225,0.0,0.0,85,0.00,,,0.00,weatherlink.com 1.10,2013-02-26 04:54:00,